Date,TemperatureHighF,TemperatureAvgF,TemperatureLowF,DewpointHighF,DewpointAvgF,DewpointLowF,HumidityHigh,HumidityAvg,HumidityLow,PressureMaxIn,PressureMinIn,WindSpeedMaxMPH,WindSpeedAvgMPH,GustSpeedMaxMPH,PrecipitationSumIn
2013-2-1,77.0,67.2,57.0,60.0,48.3,35.0,93,52,34,0.00,40.00,6,2,19,0.00
2013-2-2,77.0,67.7,60.0,62.0,55.5,47.0,85,66,54,0.00,40.00,2,1,16,0.00
2013-2-3,78.0,64.6,57.0,63.0,59.0,55.0,99,83,59,0.00,40.00,5,1,9,0.00
2013-2-4,78.0,65.2,55.0,58.0,55.3,52.0,97,73,50,0.00,40.00,4,1,13,0.00
2013-2-5,73.0,64.1,60.0,64.0,56.8,51.0,88,77,68,0.00,40.00,2,0,12,0.01
2013-2-6,79.0,66.5,59.0,63.0,56.3,52.0,88,71,53,0.00,40.00,3,0,10,0.01
2013-2-7,79.0,66.6,59.0,64.0,58.9,54.0,98,78,56,0.00,40.00,4,0,9,0.00
2013-2-8,78.0,67.3,60.0,65.0,61.0,56.0,98,82,63,0.00,40.00,2,0,7,0.00
2013-2-9,78.0,66.6,58.0,63.0,58.2,50.0,99,76,54,0.00,40.00,4,0,10,0.00
2013-2-10,79.0,68.3,58.0,61.0,56.6,51.0,90,68,41,0.00,40.00,4,1,15,0.00
2013-2-11,76.0,65.9,59.0,65.0,58.1,51.0,93,77,63,0.00,40.00,4,1,11,0.01
2013-2-12,76.0,64.0,58.0,58.0,52.8,48.0,83,68,50,0.00,40.00,5,2,14,0.01
2013-2-13,77.0,63.2,57.0,58.0,53.2,48.0,89,71,49,0.00,40.00,4,1,11,0.00
2013-2-14,74.0,64.1,57.0,61.0,54.2,48.0,86,71,58,0.00,40.00,2,0,9,0.00
2013-2-15,77.0,66.1,58.0,61.0,55.2,48.0,81,68,53,0.00,40.00,4,1,10,0.00
2013-2-16,79.0,67.9,61.0,62.0,53.8,45.0,81,62,44,0.00,40.00,7,2,19,0.00
2013-2-17,78.0,67.1,61.0,60.0,53.7,50.0,73,63,43,0.00,40.00,8,3,19,0.00
2013-2-18,79.0,66.2,60.0,58.0,51.9,48.0,75,61,43,0.00,40.00,8,3,21,0.00
2013-2-19,75.0,65.5,59.0,58.0,53.3,49.0,80,66,47,0.00,40.00,4,1,13,0.00
2013-2-20,79.0,67.6,59.0,63.0,55.6,50.0,87,67,46,0.00,40.00,6,1,19,0.00
2013-2-21,72.0,63.7,60.0,64.0,58.0,49.0,94,83,65,0.00,40.00,3,0,8,0.23
2013-2-22,78.0,66.2,59.0,64.0,58.7,54.0,94,78,60,0.00,40.00,3,0,8,0.02
2013-2-23,77.0,67.3,60.0,64.0,56.8,54.0,86,70,51,0.00,40.00,4,1,14,0.01
2013-2-24,78.0,66.6,59.0,60.0,54.4,50.0,87,66,42,0.00,40.00,7,1,20,0.00
2013-2-25,77.0,66.5,59.0,60.0,54.8,51.0,88,67,49,0.00,40.00,5,1,19,0.00
2013-2-26,80.0,66.7,60.0,61.0,55.0,51.0,82,67,44,0.00,40.00,4,1,15,0.00
2013-2-27,77.0,67.5,57.0,62.0,53.8,49.0,95,63,39,0.00,40.00,7,1,15,0.00
2013-2-28,80.0,67.1,58.0,58.0,52.9,48.0,81,62,42,0.00,40.00,5,1,13,0.00